Weather History for Eagle River, WI

Change the Weather History Date:

Thursday, September 5, 2013

  Actual Average Record
Temperature  
Mean Temperature 54 °F -  
Max Temperature 70 °F 71 °F 89 °F (1998)
Min Temperature 38 °F 47 °F 35 °F (2000)
Degree Days  
Heating Degree Days 11    
Growing Degree Days 4 (Base 50)    
Moisture  
Dew Point 44 °F    
Average Humidity 73    
Maximum Humidity 100    
Minimum Humidity 33    
Precipitation  
Precipitation 0.00 in - - ()
Sea Level Pressure  
Sea Level Pressure 30.26 in    
Wind  
Wind Speed 1 mph (SW)    
Max Wind Speed 7 mph    
Max Gust Speed -    
Visibility 8 miles    
Events Fog    
Averages and records for this station are not official NWS values.
T = Trace of Precipitation, MM = Missing Value Source: NWS Daily Summary

Daily Weather History Graph

Daily Weather History Graph

Search for Another Location

Airport:

Trip Planner

Search our weather history database for the weather conditions in past years. The results will help you decide how hot, cold, wet, or windy it might be!

Date:

Astronomy

Sep. 05, 2013 Rise Set
Actual Time 6:23 AM CDT 7:27 PM CDT
Civil Twilight 5:52 AM CDT 7:57 PM CDT
Nautical Twilight 5:15 AM CDT 8:34 PM CDT
Astronomical Twilight 4:37 AM CDT 9:12 PM CDT
Moon 6:38 AM CDT (9/5) 7:13 PM CDT (9/5)
Length of Visible Light 14h 05m
Length of Day
13h 04m
New Moon, 0% of the Moon is Illuminated
Sep 5
New Moon
Sep 12
First Quarter
Sep 19
Full
Sep 26
Last Quarter
Oct 4
New

Hourly Weather History & Observations

Time (CDT) Temp. Dew Point Humidity Pressure Visibility Wind Dir Wind Speed Gust Speed Precip Events Conditions
12:15 AM 44.4 °F 44.4 °F 100% 30.21 in 10.0 mi Calm Calm - N/A   Clear
12:35 AM 42.4 °F 42.4 °F 100% 30.21 in 2.0 mi Calm Calm - N/A   Clear
12:55 AM 42.8 °F 42.8 °F 100% 30.22 in - Calm Calm - N/A   Unknown
1:15 AM 42.4 °F 42.4 °F 100% 30.22 in 2.5 mi Calm Calm - N/A   Clear
1:35 AM 41.7 °F 41.7 °F 100% 30.22 in 7.0 mi Calm Calm - N/A   Clear
1:55 AM 40.6 °F 40.6 °F 100% 30.23 in 0.8 mi Calm Calm - N/A   Mist
2:15 AM 40.6 °F 40.6 °F 100% 30.23 in 0.8 mi Calm Calm - N/A   Mostly Cloudy
2:35 AM 41.2 °F 41.2 °F 100% 30.23 in 10.0 mi Calm Calm - N/A   Scattered Clouds
2:55 AM 41.4 °F 41.4 °F 100% 30.24 in 10.0 mi Calm Calm - N/A   Clear
3:15 AM 39.4 °F 39.4 °F 100% 30.24 in 2.5 mi Calm Calm - N/A   Clear
3:35 AM 40.6 °F 40.6 °F 100% 30.24 in 0.8 mi Calm Calm - N/A   Mist
3:55 AM 40.1 °F 40.1 °F 100% 30.24 in 1.8 mi Calm Calm - N/A   Mist
4:15 AM 39.9 °F 39.9 °F 100% 30.25 in 10.0 mi Calm Calm - N/A   Clear
4:35 AM 39.4 °F 39.4 °F 100% 30.25 in 10.0 mi Calm Calm - N/A   Clear
4:55 AM 39.2 °F 39.2 °F 100% 30.26 in 10.0 mi Calm Calm - N/A   Clear
5:15 AM 39.2 °F 39.2 °F 100% 30.26 in 10.0 mi Calm Calm - N/A   Mostly Cloudy
5:35 AM 39.2 °F 39.2 °F 100% 30.28 in 0.8 mi Calm Calm - N/A   Overcast
5:55 AM 39.4 °F 39.4 °F 100% 30.28 in 0.8 mi Calm Calm - N/A   Overcast
6:15 AM 39.6 °F 39.6 °F 100% 30.29 in 0.2 mi Calm Calm - N/A Fog Fog
6:35 AM 38.3 °F 38.3 °F 100% 30.29 in 0.2 mi Calm Calm - N/A Fog Fog
6:55 AM 38.5 °F 38.5 °F 100% 30.30 in 0.5 mi Calm Calm - N/A Fog Fog
7:15 AM 40.1 °F 40.1 °F 100% 30.30 in 1.0 mi Calm Calm - N/A   Mostly Cloudy
7:35 AM 43.0 °F 43.0 °F 100% 30.30 in 10.0 mi Calm Calm - N/A   Clear
7:55 AM 47.3 °F 47.3 °F 100% 30.31 in 10.0 mi South 3.5 mph - N/A   Clear
8:15 AM 49.1 °F 49.1 °F 100% 30.31 in 10.0 mi Calm Calm - N/A   Clear
8:35 AM 50.2 °F 49.1 °F 96% 30.31 in 10.0 mi South 5.8 mph - N/A   Clear
8:55 AM 52.9 °F 45.1 °F 75% 30.31 in 10.0 mi SSE 4.6 mph - N/A   Clear
9:15 AM 54.7 °F 43.9 °F 67% 30.32 in 10.0 mi South 5.8 mph - N/A   Clear
9:35 AM 55.9 °F 43.7 °F 63% 30.32 in 10.0 mi SSW 4.6 mph - N/A   Clear
9:55 AM 57.6 °F 43.9 °F 60% 30.32 in 10.0 mi SE 4.6 mph - N/A   Clear
10:15 AM 58.6 °F 45.0 °F 60% 30.32 in 10.0 mi Calm Calm - N/A   Clear
10:35 AM 59.9 °F 44.1 °F 56% 30.31 in 10.0 mi SW 4.6 mph - N/A   Clear
10:55 AM 60.4 °F 44.1 °F 55% 30.31 in 10.0 mi Calm Calm - N/A   Clear
11:15 AM 62.6 °F 43.5 °F 50% 30.30 in 10.0 mi WSW 5.8 mph - N/A   Clear
11:35 AM 62.6 °F 43.2 °F 49% 30.30 in 10.0 mi SE 4.6 mph - N/A   Clear
11:55 AM 64.4 °F 43.7 °F 47% 30.30 in 10.0 mi SW 5.8 mph - N/A   Clear
12:15 PM 65.1 °F 42.1 °F 43% 30.30 in 10.0 mi West 3.5 mph - N/A   Clear
12:35 PM 65.1 °F 42.4 °F 44% 30.29 in 10.0 mi West 5.8 mph - N/A   Clear
12:55 PM 66.0 °F 40.5 °F 39% 30.29 in 10.0 mi SW 4.6 mph - N/A   Clear
1:15 PM 66.2 °F 43.0 °F 43% 30.29 in 10.0 mi Calm Calm - N/A   Clear
1:35 PM 67.1 °F 43.7 °F 43% 30.28 in 10.0 mi Calm Calm - N/A   Clear
1:55 PM 68.2 °F 43.3 °F 41% 30.28 in 10.0 mi SSW 5.8 mph - N/A   Clear
2:15 PM 68.2 °F 41.0 °F 37% 30.27 in 10.0 mi SW 4.6 mph - N/A   Clear
2:35 PM 68.7 °F 40.3 °F 35% 30.26 in 10.0 mi WSW 4.6 mph - N/A   Clear
2:55 PM 69.3 °F 41.2 °F 36% 30.26 in 10.0 mi Calm Calm - N/A   Clear
3:15 PM 69.8 °F 42.4 °F 37% 30.25 in 10.0 mi WNW 3.5 mph - N/A   Clear
3:35 PM 69.3 °F 40.5 °F 35% 30.25 in 10.0 mi WSW 4.6 mph - N/A   Clear
3:55 PM 70.7 °F 41.4 °F 35% 30.25 in 10.0 mi Calm Calm - N/A   Clear
4:15 PM 70.3 °F 39.7 °F 33% 30.24 in 10.0 mi West 6.9 mph - N/A   Clear
4:35 PM 70.7 °F 42.4 °F 36% 30.24 in 10.0 mi WSW 3.5 mph - N/A   Clear
4:55 PM 70.0 °F 40.8 °F 35% 30.24 in 10.0 mi Calm Calm - N/A   Clear
5:15 PM 70.0 °F 41.5 °F 36% 30.23 in 10.0 mi Calm Calm - N/A   Clear
5:35 PM 70.2 °F 44.1 °F 39% 30.23 in 10.0 mi Calm Calm - N/A   Clear
5:55 PM 69.8 °F 44.8 °F 41% 30.23 in 10.0 mi West 3.5 mph - N/A   Clear
6:15 PM 68.7 °F 45.1 °F 43% 30.23 in 10.0 mi West 3.5 mph - N/A   Clear
6:35 PM 67.5 °F 47.3 °F 48% 30.22 in 10.0 mi Calm Calm - N/A   Clear
6:55 PM 66.0 °F 47.8 °F 52% 30.22 in 10.0 mi SSW 3.5 mph - N/A   Clear
7:15 PM 59.5 °F 51.6 °F 75% 30.22 in 10.0 mi Calm Calm - N/A   Clear
7:35 PM 59.7 °F 51.1 °F 73% 30.22 in 10.0 mi Calm Calm - N/A   Clear
7:55 PM 56.8 °F 49.8 °F 77% 30.22 in 10.0 mi Calm Calm - N/A   Clear
8:15 PM 54.1 °F 49.5 °F 84% 30.22 in 10.0 mi Calm Calm - N/A   Clear
8:35 PM 54.5 °F 50.0 °F 85% 30.22 in 10.0 mi SSW 3.5 mph - N/A   Clear
8:55 PM 53.1 °F 50.9 °F 92% 30.22 in 10.0 mi Calm Calm - N/A   Clear
9:15 PM 53.1 °F 49.1 °F 86% 30.22 in 10.0 mi Calm Calm - N/A   Clear
9:35 PM 52.2 °F 49.5 °F 91% 30.22 in 10.0 mi Calm Calm - N/A   Clear
9:55 PM 51.1 °F 50.5 °F 98% 30.22 in 10.0 mi Calm Calm - N/A   Clear
10:15 PM 52.5 °F 52.3 °F 99% 30.21 in 10.0 mi South 3.5 mph - N/A   Clear
10:35 PM 50.4 °F 49.8 °F 98% 30.21 in 10.0 mi SSW 3.5 mph - N/A   Clear
10:55 PM 55.9 °F 50.0 °F 80% 30.21 in 10.0 mi SSW 3.5 mph - N/A   Clear
11:15 PM 56.1 °F 49.8 °F 79% 30.21 in 10.0 mi SSW 3.5 mph - N/A   Clear
11:35 PM 55.6 °F 48.6 °F 77% 30.21 in 10.0 mi SSW 3.5 mph - N/A   Clear
11:55 PM 55.6 °F 48.4 °F 77% 30.20 in 10.0 mi Calm Calm - N/A   Clear